Overview Statistics Trail Chart Weather Telemetry Raw packets
 

This is the latest recevied weather packets stored in our database for station/object K4KMJ. If no packets are shown the sender has not sent any weather packets the latest 10 day(s).

<< 70 71 72 73 74 75 76 >>
Time Temp. Humidity Pressure Rain* Wind** Luminosity Snow
1788184366 30° C 91% 1020 hPa 0 mm - 160 W/m² -
1788184061 30° C 92% 1019.7 hPa 0 mm - 336 W/m² -
1788183758 29.44° C 92% 1019.6 hPa 0 mm - 211 W/m² -
1788183456 29.44° C 93% 1019.8 hPa 0 mm - 487 W/m² -
1788183152 28.89° C 93% 1019.6 hPa 0 mm - 158 W/m² -
1788182847 30° C 93% 1019.7 hPa 0 mm - 410 W/m² -
1788182546 29.44° C 94% 1019.6 hPa 0 mm - 299 W/m² -
1788182240 29.44° C 95% 1019.5 hPa 0 mm - 336 W/m² -
1788181938 29.44° C 95% 1019.5 hPa 0 mm - 286 W/m² -
1788181633 28.89° C 97% 1019.4 hPa 0 mm - 252 W/m² -
1788181328 28.33° C 98% 1019.5 hPa 0 mm - 228 W/m² -
1788181027 27.78° C 98% 1019.4 hPa 0 mm - 221 W/m² -
1788180723 27.78° C 99% 1019.5 hPa 0 mm - 210 W/m² -
1788180417 27.78° C 99% 1019.4 hPa 0 mm - 165 W/m² -
1788180113 27.78° C 99% 1019.4 hPa 0 mm - 145 W/m² -
1788179813 27.78° C 99% 1019.8 hPa 0 mm - 130 W/m² -
1788179512 27.78° C 99% 1019.4 hPa 0 mm - 121 W/m² -
1788179206 26.67° C 99% 1019.5 hPa 0 mm - 112 W/m² -
1788178902 26.67° C 99% 1019.2 hPa 0 mm - 108 W/m² -
1788178602 26.67° C 99% 1019 hPa 0 mm - 105 W/m² -
1788178298 26.67° C 99% 1019.1 hPa 0 mm - 92 W/m² -
1788177994 26.11° C 99% 1019.3 hPa 0 mm - 79 W/m² -
1788177688 26.11° C 99% 1019.1 hPa 0 mm - 68 W/m² -
1788177384 26.11° C 99% 1019.1 hPa 0 mm - 59 W/m² -
1788177095 25.56° C 99% 1019.1 hPa 0 mm - 51 W/m² -

* Rain latest hour (hover to see other rain measurements)
** Current wind speed in m/s (hover to see current wind gust speed)